Location: Ferchesar
(52.6477°N, 12.4298°E)
Time: 18:23:19
(UTC+01:00)

Envisat - Pass Details

Date: 10 October 2022
Orbit: 763 x 765 km, 98.2° (Epoch: 30 November)

Event Time Altitude Azimuth Distance (km) Brightness Sun altitude
Rises 06:33:57 0° 10° (N) 3,248 6.4 -8.8°
Reaches altitude 10° 06:36:22 10° 4° (N) 2,317 5.6 -8.4°
Maximum altitude 06:41:07 41° 295° (WNW) 1,109 3.4 -7.7°
Drops below altitude 10° 06:45:50 10° 227° (SW) 2,301 5.1 -7.0°
Sets 06:48:14 0° 220° (SW) 3,223 5.9 -6.7°
